TimeCST,TemperatureF,Dew PointF,Humidity,Sea Level PressureIn,VisibilityMPH,Wind Direction,Wind SpeedMPH,Gust SpeedMPH,PrecipitationIn,Events,Conditions,WindDirDegrees,DateUTC
12:53 AM,46.9,39.0,74,30.07,10.0,ENE,6.9,-,N/A,,Overcast,70,2014-01-05 06:53:00
1:53 AM,48.0,39.9,74,30.06,10.0,ENE,5.8,-,N/A,,Mostly Cloudy,70,2014-01-05 07:53:00
2:53 AM,48.0,41.0,77,30.05,10.0,NE,5.8,-,N/A,,Overcast,40,2014-01-05 08:53:00
3:33 AM,48.9,41.0,74,30.04,10.0,NE,4.6,-,N/A,,Overcast,40,2014-01-05 09:33:00
3:40 AM,48.9,42.1,77,30.04,10.0,Variable,3.5,-,N/A,,Overcast,0,2014-01-05 09:40:00
3:53 AM,48.0,41.0,77,30.05,10.0,NE,4.6,-,N/A,,Overcast,50,2014-01-05 09:53:00
4:22 AM,48.0,41.0,77,30.03,10.0,ENE,5.8,-,N/A,,Overcast,60,2014-01-05 10:22:00
4:53 AM,48.9,42.1,77,30.03,10.0,ENE,3.5,-,N/A,,Overcast,60,2014-01-05 10:53:00
5:11 AM,48.9,42.1,77,30.01,10.0,ENE,5.8,-,N/A,,Overcast,60,2014-01-05 11:11:00
5:53 AM,50.0,43.0,77,30.02,10.0,ENE,4.6,-,N/A,,Overcast,60,2014-01-05 11:53:00
6:05 AM,50.0,43.0,77,30.01,10.0,Variable,4.6,-,N/A,,Overcast,0,2014-01-05 12:05:00
6:13 AM,50.0,43.0,77,30.01,10.0,ENE,4.6,-,N/A,,Overcast,60,2014-01-05 12:13:00
6:53 AM,50.0,44.1,80,30.03,10.0,Variable,3.5,-,N/A,,Overcast,0,2014-01-05 12:53:00
7:53 AM,52.0,46.0,80,30.05,10.0,East,5.8,-,N/A,,Overcast,90,2014-01-05 13:53:00
8:37 AM,54.0,46.9,77,30.03,10.0,East,4.6,-,N/A,,Overcast,80,2014-01-05 14:37:00
8:53 AM,53.1,46.9,80,30.04,10.0,East,6.9,-,N/A,,Overcast,90,2014-01-05 14:53:00
9:00 AM,54.0,46.9,77,30.02,10.0,East,6.9,-,N/A,,Overcast,100,2014-01-05 15:00:00
9:14 AM,54.0,48.0,80,30.02,10.0,East,9.2,-,N/A,,Overcast,90,2014-01-05 15:14:00
9:53 AM,55.0,50.0,83,30.05,7.0,ESE,4.6,-,0.00,Rain,Light Rain,110,2014-01-05 15:53:00
10:53 AM,55.9,52.0,87,30.01,9.0,ESE,4.6,-,0.00,Rain,Light Rain,110,2014-01-05 16:53:00
11:16 AM,57.0,53.1,87,30.00,5.0,SE,3.5,-,0.00,Rain,Light Rain,130,2014-01-05 17:16:00
11:53 AM,59.0,54.0,83,29.99,7.0,ESE,5.8,-,0.00,,Overcast,110,2014-01-05 17:53:00
12:53 PM,62.1,55.0,78,29.95,7.0,East,5.8,-,N/A,,Overcast,100,2014-01-05 18:53:00
1:03 PM,62.1,55.0,78,29.94,8.0,ESE,9.2,-,N/A,,Overcast,110,2014-01-05 19:03:00
1:53 PM,61.0,55.0,81,29.94,8.0,East,4.6,-,N/A,,Overcast,90,2014-01-05 19:53:00
2:53 PM,62.1,55.9,80,29.93,10.0,ESE,5.8,-,N/A,,Overcast,120,2014-01-05 20:53:00
3:53 PM,61.0,55.9,83,29.94,10.0,Calm,Calm,-,N/A,,Overcast,0,2014-01-05 21:53:00
4:53 PM,61.0,57.0,87,29.93,8.0,SSE,3.5,-,0.00,,Overcast,160,2014-01-05 22:53:00
5:53 PM,60.1,55.9,86,29.92,10.0,SE,4.6,-,N/A,,Overcast,140,2014-01-05 23:53:00
6:53 PM,60.1,55.9,86,29.90,10.0,SSE,10.4,-,N/A,,Mostly Cloudy,150,2014-01-06 00:53:00
7:53 PM,62.1,59.0,90,29.90,10.0,SSW,8.1,-,N/A,,Mostly Cloudy,200,2014-01-06 01:53:00
8:53 PM,63.0,59.0,87,29.90,10.0,SSW,9.2,-,N/A,,Scattered Clouds,200,2014-01-06 02:53:00
9:53 PM,66.0,61.0,84,29.89,10.0,SSW,12.7,-,0.00,Rain,Light Rain,210,2014-01-06 03:53:00
10:22 PM,64.9,61.0,87,29.89,8.0,West,16.1,26.5,0.07,Rain,Light Rain,270,2014-01-06 04:22:00
10:53 PM,62.1,59.0,90,29.91,10.0,NW,17.3,24.2,0.07,,Overcast,310,2014-01-06 04:53:00
11:34 PM,55.0,50.0,83,29.93,10.0,NW,21.9,28.8,N/A,,Overcast,320,2014-01-06 05:34:00
11:49 PM,53.6,48.2,82,29.95,10.0,NNW,20.7,29.9,N/A,,Overcast,330,2014-01-06 05:49:00
11:53 PM,53.1,48.9,86,29.96,10.0,NNW,24.2,32.2,N/A,,Overcast,330,2014-01-06 05:53:00